Greensboro, NC

1:37 PM EST on February 23, 2017 (GMT -0500)
Piedmont Triad International

Weather History for KGSO - July, 2014

Change the Weather History Date:

Friday, July 18, 2014

  Actual Average Record
Temperature  
Mean Temperature 74 °F 79 °F  
Max Temperature 83 °F 88 °F 97 °F (1986)
Min Temperature 64 °F 69 °F 55 °F (1946)
Degree Days  
Heating Degree Days 0 0  
Month to date heating degree days 0 0  
Since 1 June heating degree days 0 6  
Since 1 July heating degree days 0 0  
Cooling Degree Days 9 14  
Month to date cooling degree days 249 246  
Year to date cooling degree days 803 712  
Since 1 June cooling degree days 606 553  
Growing Degree Days 23 (Base 50)    
Moisture  
Dew Point 60 °F    
Average Humidity 64    
Maximum Humidity 84    
Minimum Humidity 43    
Precipitation  
Precipitation 0.00 in 0.15 in 1.50 in (1984)
Month to date precipitation 1.43 2.52  
Year to date precipitation 21.92 22.95  
Sea Level Pressure  
Sea Level Pressure 30.15 in    
Wind  
Wind Speed 4 mph (NE)    
Max Wind Speed 14 mph    
Max Gust Speed 16 mph    
Visibility 10 miles    
Events      
T = Trace of Precipitation, MM = Missing Value Source: NWS Daily Summary

Daily Weather History Graph

Daily Weather History Graph

Search for Another Location

Airport or City:

Trip Planner

Search our weather history database for the weather conditions in past years. The results will help you decide how hot, cold, wet, or windy it might be!

Date:

Astronomy

Jul. 18, 2014 Rise Set
Actual Time 6:16 AM EDT 8:35 PM EDT
Civil Twilight 5:47 AM EDT 9:04 PM EDT
Nautical Twilight 5:10 AM EDT 9:40 PM EDT
Astronomical Twilight 4:31 AM EDT 10:19 PM EDT
Moon 12:07 AM EDT (7/18) 1:16 PM EDT (7/18)
Length of Visible Light 15h 17m
Length of Day
14h 18m
Waning Gibbous, 55% of the Moon is Illuminated
Jul 18
Waning Gibbous
Jul 18
Last Quarter
Jul 26
New
Aug 3
First Quarter
Aug 10
Full

Hourly Weather History & Observations

Time (EDT) Temp. Heat Index Dew Point Humidity Pressure Visibility Wind Dir Wind Speed Gust Speed Precip Events Conditions
12:54 AM 71.1 °F - 57.0 °F 61% 30.09 in 10.0 mi Calm Calm - N/A   Scattered Clouds
1:54 AM 70.0 °F - 57.0 °F 63% 30.10 in 10.0 mi Calm Calm - N/A   Scattered Clouds
2:54 AM 68.0 °F - 57.0 °F 68% 30.10 in 10.0 mi Calm Calm - N/A   Mostly Cloudy
3:54 AM 66.0 °F - 57.9 °F 75% 30.12 in 10.0 mi Calm Calm - N/A   Scattered Clouds
4:54 AM 66.9 °F - 57.9 °F 73% 30.13 in 10.0 mi Calm Calm - N/A   Mostly Cloudy
5:54 AM 64.9 °F - 57.9 °F 78% 30.13 in 10.0 mi NNE 4.6 mph - N/A   Mostly Cloudy
6:54 AM 64.9 °F - 57.9 °F 78% 30.15 in 10.0 mi NNE 6.9 mph - N/A   Mostly Cloudy
7:54 AM 68.0 °F - 59.0 °F 73% 30.17 in 10.0 mi NNE 5.8 mph - N/A   Mostly Cloudy
8:54 AM 70.0 °F - 61.0 °F 73% 30.18 in 10.0 mi North 5.8 mph - N/A   Mostly Cloudy
9:54 AM 73.0 °F - 62.1 °F 68% 30.19 in 10.0 mi Calm Calm - N/A   Mostly Cloudy
10:54 AM 77.0 °F - 64.0 °F 64% 30.19 in 10.0 mi Variable 3.5 mph - N/A   Mostly Cloudy
11:54 AM 80.1 °F 81.1 °F 61.0 °F 52% 30.17 in 10.0 mi SSE 8.1 mph - N/A   Mostly Cloudy
12:54 PM 80.1 °F 80.9 °F 60.1 °F 50% 30.17 in 10.0 mi Calm Calm - N/A   Mostly Cloudy
1:54 PM 82.0 °F 81.7 °F 57.0 °F 42% 30.15 in 10.0 mi East 9.2 mph - N/A   Mostly Cloudy
2:54 PM 79.0 °F - 57.9 °F 48% 30.15 in 10.0 mi SE 6.9 mph - N/A   Mostly Cloudy
3:54 PM 81.0 °F 81.3 °F 59.0 °F 47% 30.14 in 10.0 mi East 6.9 mph - N/A   Overcast
4:54 PM 79.0 °F - 62.1 °F 56% 30.15 in 10.0 mi NNE 6.9 mph - N/A   Overcast
5:54 PM 80.1 °F 80.9 °F 60.1 °F 50% 30.15 in 10.0 mi ESE 9.2 mph - N/A   Overcast
6:54 PM 79.0 °F - 59.0 °F 50% 30.15 in 10.0 mi ENE 4.6 mph - N/A   Overcast
7:54 PM 73.0 °F - 64.0 °F 73% 30.17 in 10.0 mi NW 9.2 mph - N/A   Overcast
8:54 PM 72.0 °F - 64.0 °F 76% 30.17 in 10.0 mi NNW 4.6 mph - N/A   Mostly Cloudy
9:54 PM 70.0 °F - 64.0 °F 81% 30.17 in 10.0 mi North 3.5 mph - N/A   Partly Cloudy
10:54 PM 70.0 °F - 64.0 °F 81% 30.17 in 10.0 mi NNE 3.5 mph - N/A   Mostly Cloudy
11:54 PM 69.1 °F - 64.0 °F 84% 30.16 in 10.0 mi Calm Calm - N/A   Mostly Cloudy